TimeEDT,TemperatureF,Dew PointF,Humidity,Sea Level PressureIn,VisibilityMPH,Wind Direction,Wind SpeedMPH,Gust SpeedMPH,PrecipitationIn,Events,Conditions,WindDirDegrees,DateUTC
12:54 AM,69.1,62.1,78,30.07,8.0,Calm,Calm,-,N/A,,Scattered Clouds,0,2008-07-19 04:54:00
1:54 AM,66.0,63.0,90,30.07,7.0,Calm,Calm,-,N/A,,Clear,0,2008-07-19 05:54:00
2:54 AM,64.9,62.1,90,30.06,6.0,Calm,Calm,-,N/A,,Clear,0,2008-07-19 06:54:00
3:54 AM,63.0,61.0,93,30.06,6.0,Calm,Calm,-,N/A,,Clear,0,2008-07-19 07:54:00
4:54 AM,62.1,60.1,93,30.06,5.0,Calm,Calm,-,N/A,,Clear,0,2008-07-19 08:54:00
5:54 AM,62.1,60.1,93,30.07,7.0,Calm,Calm,-,N/A,,Clear,0,2008-07-19 09:54:00
6:39 AM,60.8,60.8,100,30.16,1.5,Calm,Calm,-,N/A,,Clear,0,2008-07-19 10:39:00
6:46 AM,59.0,59.0,100,30.16,6.0,Calm,Calm,-,N/A,,Partly Cloudy,0,2008-07-19 10:46:00
6:54 AM,59.0,59.0,100,30.09,6.0,Calm,Calm,-,N/A,,Partly Cloudy,0,2008-07-19 10:54:00
7:54 AM,64.0,60.1,87,30.10,6.0,NW,3.5,-,N/A,,Clear,310,2008-07-19 11:54:00
8:54 AM,68.0,61.0,78,30.10,8.0,NNW,3.5,-,N/A,,Clear,340,2008-07-19 12:54:00
9:54 AM,73.0,62.1,68,30.10,10.0,Calm,Calm,-,N/A,,Clear,0,2008-07-19 13:54:00
10:54 AM,79.0,62.1,56,30.09,10.0,Calm,Calm,-,N/A,,Clear,0,2008-07-19 14:54:00
11:54 AM,81.0,59.0,47,30.09,10.0,Calm,Calm,-,N/A,,Clear,0,2008-07-19 15:54:00
12:54 PM,84.9,59.0,41,30.07,10.0,WNW,8.1,-,N/A,,Clear,300,2008-07-19 16:54:00
1:54 PM,87.1,54.0,32,30.05,10.0,NW,11.5,-,N/A,,Clear,320,2008-07-19 17:54:00
2:54 PM,86.0,46.9,26,30.05,10.0,North,9.2,-,N/A,,Clear,350,2008-07-19 18:54:00
3:54 PM,88.0,52.0,29,30.04,10.0,NW,10.4,-,N/A,,Partly Cloudy,320,2008-07-19 19:54:00
4:54 PM,88.0,52.0,29,30.02,10.0,North,8.1,-,N/A,,Partly Cloudy,10,2008-07-19 20:54:00
5:54 PM,87.1,54.0,32,30.01,10.0,NW,10.4,-,N/A,,Clear,320,2008-07-19 21:54:00
6:54 PM,84.9,53.1,33,30.01,10.0,NNW,9.2,-,N/A,,Clear,340,2008-07-19 22:54:00
7:54 PM,82.0,55.0,39,30.01,10.0,NW,6.9,-,N/A,,Clear,320,2008-07-19 23:54:00
8:54 PM,75.9,61.0,60,30.03,8.0,Calm,Calm,-,N/A,,Clear,0,2008-07-20 00:54:00
9:54 PM,73.0,61.0,66,30.04,9.0,Calm,Calm,-,N/A,,Clear,0,2008-07-20 01:54:00
10:54 PM,70.0,61.0,73,30.05,8.0,Calm,Calm,-,N/A,,Clear,0,2008-07-20 02:54:00
11:54 PM,66.9,61.0,81,30.06,7.0,Calm,Calm,-,N/A,,Clear,0,2008-07-20 03:54:00